Time,TemperatureF,DewpointF,PressureIn,WindDirection,WindDirectionDegrees,WindSpeedMPH,WindSpeedGustMPH,Humidity,HourlyPrecipIn,Conditions,Clouds,dailyrainin,SolarRadiationWatts/m^2,SoftwareType,DateUTC
2013-03-10 00:08:00,42.2,40.0,30.38,NE,55,0.0,4.0,91,0.00,,,0.00,0,weatherlink.com 1.10,2013-03-10 08:08:00,
2013-03-10 00:23:00,43.8,42.0,30.38,NE,34,7.0,7.0,92,0.00,,,0.00,0,weatherlink.com 1.10,2013-03-10 08:23:00,
2013-03-10 00:38:00,45.8,43.0,30.37,North,355,4.0,11.0,90,0.00,,,0.00,0,weatherlink.com 1.10,2013-03-10 08:38:00,
2013-03-10 00:53:00,45.8,43.0,30.38,NNE,23,1.0,7.0,89,0.00,,,0.00,0,weatherlink.com 1.10,2013-03-10 08:53:00,
2013-03-10 01:08:00,45.6,42.0,30.39,NNE,28,7.0,10.0,88,0.00,,,0.00,0,weatherlink.com 1.10,2013-03-10 09:08:00,
2013-03-10 01:23:00,45.2,42.0,30.39,NNE,28,0.0,7.0,88,0.00,,,0.00,0,weatherlink.com 1.10,2013-03-10 09:23:00,
2013-03-10 01:38:00,44.8,42.0,30.39,NNE,28,3.0,6.0,88,0.00,,,0.00,0,weatherlink.com 1.10,2013-03-10 09:38:00,
2013-03-10 01:53:00,44.3,41.0,30.38,NNE,28,0.0,2.0,87,0.00,,,0.00,0,weatherlink.com 1.10,2013-03-10 09:53:00,
2013-03-10 03:08:00,44.1,41.0,30.38,NNE,32,5.0,15.0,87,0.00,,,0.00,0,weatherlink.com 1.10,2013-03-10 10:08:00,
2013-03-10 03:23:00,44.2,40.0,30.37,ENE,65,4.0,12.0,86,0.00,,,0.00,0,weatherlink.com 1.10,2013-03-10 10:23:00,
2013-03-10 03:38:00,44.6,40.0,30.37,NNE,30,8.0,11.0,85,0.00,,,0.00,0,weatherlink.com 1.10,2013-03-10 10:38:00,
2013-03-10 03:53:00,43.5,39.0,30.38,NNE,21,1.0,6.0,85,0.00,,,0.00,0,weatherlink.com 1.10,2013-03-10 10:53:00,
2013-03-10 04:08:00,41.9,38.0,30.37,NNE,22,1.0,3.0,86,0.00,,,0.00,0,weatherlink.com 1.10,2013-03-10 11:08:00,
2013-03-10 04:23:00,42.7,40.0,30.37,NE,44,2.0,9.0,90,0.00,,,0.00,0,weatherlink.com 1.10,2013-03-10 11:23:00,
2013-03-10 04:38:00,43.2,40.0,30.37,NE,44,2.0,4.0,88,0.00,,,0.00,0,weatherlink.com 1.10,2013-03-10 11:38:00,
2013-03-10 04:53:00,42.4,39.0,30.37,NE,44,1.0,3.0,88,0.00,,,0.00,0,weatherlink.com 1.10,2013-03-10 11:53:00,
2013-03-10 05:08:00,43.3,40.0,30.37,NNE,28,9.0,13.0,87,0.00,,,0.00,0,weatherlink.com 1.10,2013-03-10 12:08:00,
2013-03-10 05:23:00,43.4,40.0,30.37,NE,38,4.0,9.0,88,0.00,,,0.00,0,weatherlink.com 1.10,2013-03-10 12:23:00,
2013-03-10 05:38:00,42.3,39.0,30.37,NNE,23,7.0,10.0,87,0.00,,,0.00,0,weatherlink.com 1.10,2013-03-10 12:38:00,
2013-03-10 05:53:00,43.1,40.0,30.37,ENE,69,2.0,7.0,87,0.00,,,0.00,0,weatherlink.com 1.10,2013-03-10 12:53:00,
2013-03-10 06:08:00,42.9,39.0,30.37,ENE,69,1.0,5.0,87,0.00,,,0.00,0,weatherlink.com 1.10,2013-03-10 13:08:00,
2013-03-10 06:23:00,43.7,40.0,30.36,SSW,211,3.0,10.0,86,0.00,,,0.00,0,weatherlink.com 1.10,2013-03-10 13:23:00,
2013-03-10 06:38:00,43.8,40.0,30.37,NNE,13,4.0,10.0,86,0.00,,,0.00,0,weatherlink.com 1.10,2013-03-10 13:38:00,
2013-03-10 06:53:00,44.0,40.0,30.37,ENE,70,5.0,9.0,85,0.00,,,0.00,0,weatherlink.com 1.10,2013-03-10 13:53:00,
2013-03-10 07:08:00,42.6,38.0,30.37,NNE,32,4.0,7.0,85,0.00,,,0.00,0,weatherlink.com 1.10,2013-03-10 14:08:00,
2013-03-10 07:23:00,42.4,39.0,30.36,NE,47,6.0,9.0,87,0.00,,,0.00,0,weatherlink.com 1.10,2013-03-10 14:23:00,
2013-03-10 07:38:00,42.3,38.0,30.38,NNE,31,2.0,4.0,86,0.00,,,0.00,11,weatherlink.com 1.10,2013-03-10 14:38:00,
2013-03-10 07:53:00,42.7,39.0,30.39,NNE,13,2.0,7.0,87,0.00,,,0.00,25,weatherlink.com 1.10,2013-03-10 14:53:00,
2013-03-10 08:09:00,42.8,39.0,30.39,NNE,13,0.0,4.0,87,0.00,,,0.00,53,weatherlink.com 1.10,2013-03-10 15:09:00,
2013-03-10 08:24:00,42.8,40.0,30.40,NNE,13,0.0,3.0,88,0.00,,,0.00,148,weatherlink.com 1.10,2013-03-10 15:24:00,
2013-03-10 08:39:00,44.8,41.0,30.39,NNE,13,1.0,5.0,87,0.00,,,0.00,229,weatherlink.com 1.10,2013-03-10 15:39:00,
2013-03-10 08:54:00,48.2,45.0,30.40,NNE,13,0.0,1.0,87,0.00,,,0.00,264,weatherlink.com 1.10,2013-03-10 15:54:00,
2013-03-10 09:09:00,48.4,43.0,30.39,NNE,13,1.0,4.0,81,0.00,,,0.00,200,weatherlink.com 1.10,2013-03-10 16:09:00,
2013-03-10 09:24:00,50.5,45.0,30.39,NNE,13,3.0,3.0,81,0.00,,,0.00,190,weatherlink.com 1.10,2013-03-10 16:24:00,
2013-03-10 09:39:00,51.2,45.0,30.40,NNE,13,3.0,4.0,79,0.00,,,0.00,193,weatherlink.com 1.10,2013-03-10 16:39:00,
2013-03-10 09:54:00,53.1,46.0,30.40,WNW,300,1.0,5.0,77,0.00,,,0.00,427,weatherlink.com 1.10,2013-03-10 16:54:00,
2013-03-10 10:09:00,52.3,45.0,30.40,WNW,300,2.0,6.0,77,0.00,,,0.00,483,weatherlink.com 1.10,2013-03-10 17:09:00,
2013-03-10 10:24:00,54.6,48.0,30.41,WNW,300,4.0,4.0,77,0.00,,,0.00,520,weatherlink.com 1.10,2013-03-10 17:24:00,
2013-03-10 10:39:00,56.6,48.0,30.41,WNW,300,3.0,4.0,73,0.00,,,0.00,589,weatherlink.com 1.10,2013-03-10 17:39:00,
2013-03-10 10:54:00,57.4,48.0,30.41,West,269,4.0,6.0,71,0.00,,,0.00,628,weatherlink.com 1.10,2013-03-10 17:54:00,
2013-03-10 11:09:00,58.2,48.0,30.40,West,269,4.0,5.0,68,0.00,,,0.00,668,weatherlink.com 1.10,2013-03-10 18:09:00,
2013-03-10 11:24:00,58.5,47.0,30.40,SSW,198,5.0,7.0,66,0.00,,,0.00,708,weatherlink.com 1.10,2013-03-10 18:24:00,
2013-03-10 11:39:00,59.5,48.0,30.40,SSW,202,2.0,5.0,66,0.00,,,0.00,684,weatherlink.com 1.10,2013-03-10 18:39:00,
2013-03-10 11:54:00,59.7,49.0,30.40,SSW,202,1.0,4.0,67,0.00,,,0.00,759,weatherlink.com 1.10,2013-03-10 18:54:00,
2013-03-10 12:09:00,60.4,49.0,30.39,SSW,202,1.0,4.0,66,0.00,,,0.00,714,weatherlink.com 1.10,2013-03-10 19:09:00,
2013-03-10 12:24:00,60.0,49.0,30.40,SSW,202,3.0,5.0,67,0.00,,,0.00,749,weatherlink.com 1.10,2013-03-10 19:24:00,
2013-03-10 12:39:00,60.1,50.0,30.39,SSW,202,2.0,5.0,69,0.00,,,0.00,793,weatherlink.com 1.10,2013-03-10 19:39:00,
2013-03-10 12:55:00,60.6,49.0,30.39,SSW,202,4.0,5.0,65,0.00,,,0.00,807,weatherlink.com 1.10,2013-03-10 19:55:00,
2013-03-10 13:10:00,60.5,50.0,30.38,SSW,202,2.0,6.0,69,0.00,,,0.00,809,weatherlink.com 1.10,2013-03-10 20:10:00,
2013-03-10 13:25:00,60.8,50.0,30.38,SSW,211,3.0,5.0,67,0.00,,,0.00,826,weatherlink.com 1.10,2013-03-10 20:25:00,
2013-03-10 13:40:00,60.5,49.0,30.37,West,274,5.0,6.0,67,0.00,,,0.00,817,weatherlink.com 1.10,2013-03-10 20:40:00,
2013-03-10 13:55:00,58.7,50.0,30.37,WNW,288,9.0,10.0,72,0.00,,,0.00,742,weatherlink.com 1.10,2013-03-10 20:55:00,
2013-03-10 14:10:00,56.0,49.0,30.36,NNW,329,7.0,11.0,78,0.00,,,0.00,775,weatherlink.com 1.10,2013-03-10 21:10:00,
2013-03-10 14:25:00,55.5,49.0,30.36,WNW,282,8.0,9.0,80,0.00,,,0.00,756,weatherlink.com 1.10,2013-03-10 21:25:00,
2013-03-10 14:40:00,56.4,50.0,30.35,WNW,288,4.0,8.0,80,0.00,,,0.00,742,weatherlink.com 1.10,2013-03-10 21:40:00,
2013-03-10 14:55:00,57.5,51.0,30.34,West,275,3.0,8.0,78,0.00,,,0.00,700,weatherlink.com 1.10,2013-03-10 21:55:00,
2013-03-10 15:10:00,57.4,50.0,30.34,West,278,7.0,10.0,76,0.00,,,0.00,673,weatherlink.com 1.10,2013-03-10 22:10:00,
2013-03-10 15:25:00,56.8,50.0,30.34,NW,315,7.0,12.0,77,0.00,,,0.00,647,weatherlink.com 1.10,2013-03-10 22:25:00,
2013-03-10 15:40:00,55.7,49.0,30.34,NW,308,6.0,12.0,79,0.00,,,0.00,619,weatherlink.com 1.10,2013-03-10 22:40:00,
2013-03-10 15:55:00,54.7,48.0,30.34,NW,319,7.0,9.0,78,0.00,,,0.00,568,weatherlink.com 1.10,2013-03-10 22:55:00,
2013-03-10 16:10:00,55.1,48.0,30.34,North,360,6.0,10.0,78,0.00,,,0.00,536,weatherlink.com 1.10,2013-03-10 23:10:00,
2013-03-10 16:25:00,54.8,48.0,30.34,NW,315,10.0,12.0,79,0.00,,,0.00,492,weatherlink.com 1.10,2013-03-10 23:25:00,
2013-03-10 16:40:00,53.9,48.0,30.33,NW,325,4.0,12.0,80,0.00,,,0.00,406,weatherlink.com 1.10,2013-03-10 23:40:00,
2013-03-10 16:55:00,54.1,48.0,30.33,NNW,337,2.0,10.0,81,0.00,,,0.00,401,weatherlink.com 1.10,2013-03-10 23:55:00,
2013-03-10 17:10:00,53.9,48.0,30.33,NNW,348,4.0,12.0,81,0.00,,,0.00,353,weatherlink.com 1.10,2013-03-11 00:10:00,
2013-03-10 17:25:00,54.8,49.0,30.32,NW,306,3.0,8.0,80,0.00,,,0.00,272,weatherlink.com 1.10,2013-03-11 00:25:00,
2013-03-10 17:40:00,56.2,50.0,30.32,NW,306,3.0,5.0,79,0.00,,,0.00,230,weatherlink.com 1.10,2013-03-11 00:40:00,
2013-03-10 17:55:00,56.0,49.0,30.32,NW,304,1.0,6.0,77,0.00,,,0.00,207,weatherlink.com 1.10,2013-03-11 00:55:00,
2013-03-10 18:10:00,56.0,49.0,30.32,NW,304,1.0,3.0,77,0.00,,,0.00,156,weatherlink.com 1.10,2013-03-11 01:10:00,
2013-03-10 18:25:00,54.7,48.0,30.32,NW,304,3.0,7.0,77,0.00,,,0.00,105,weatherlink.com 1.10,2013-03-11 01:25:00,
2013-03-10 18:40:00,52.6,46.0,30.31,NW,319,3.0,8.0,79,0.00,,,0.00,28,weatherlink.com 1.10,2013-03-11 01:40:00,
2013-03-10 18:55:00,51.7,46.0,30.31,NW,319,0.0,3.0,81,0.00,,,0.00,16,weatherlink.com 1.10,2013-03-11 01:55:00,
2013-03-10 19:10:00,51.3,46.0,30.31,NW,319,0.0,2.0,82,0.00,,,0.00,11,weatherlink.com 1.10,2013-03-11 02:10:00,
2013-03-10 19:25:00,50.1,46.0,30.31,NW,319,1.0,3.0,84,0.00,,,0.00,0,weatherlink.com 1.10,2013-03-11 02:25:00,
2013-03-10 19:40:00,49.5,45.0,30.31,NW,319,2.0,3.0,85,0.00,,,0.00,0,weatherlink.com 1.10,2013-03-11 02:40:00,
2013-03-10 19:55:00,48.6,45.0,30.31,NW,320,0.0,6.0,87,0.00,,,0.00,0,weatherlink.com 1.10,2013-03-11 02:55:00,
2013-03-10 20:10:00,48.0,45.0,30.31,NW,320,0.0,1.0,88,0.00,,,0.00,0,weatherlink.com 1.10,2013-03-11 03:10:00,
2013-03-10 20:25:00,46.8,44.0,30.31,NW,320,0.0,2.0,88,0.00,,,0.00,0,weatherlink.com 1.10,2013-03-11 03:25:00,
2013-03-10 20:40:00,46.5,44.0,30.31,NW,320,1.0,2.0,90,0.00,,,0.00,0,weatherlink.com 1.10,2013-03-11 03:40:00,
2013-03-10 20:55:00,45.9,44.0,30.32,NW,320,1.0,2.0,91,0.00,,,0.00,0,weatherlink.com 1.10,2013-03-11 03:55:00,
2013-03-10 21:10:00,45.8,43.0,30.31,NW,320,1.0,3.0,91,0.00,,,0.00,0,weatherlink.com 1.10,2013-03-11 04:10:00,
2013-03-10 21:25:00,45.7,43.0,30.31,NW,320,2.0,2.0,91,0.00,,,0.00,0,weatherlink.com 1.10,2013-03-11 04:25:00,
2013-03-10 21:40:00,46.6,44.0,30.31,NW,320,0.0,4.0,92,0.00,,,0.00,0,weatherlink.com 1.10,2013-03-11 04:40:00,
2013-03-10 21:55:00,46.0,44.0,30.32,NW,320,3.0,3.0,91,0.00,,,0.00,0,weatherlink.com 1.10,2013-03-11 04:55:00,
2013-03-10 22:10:00,45.7,44.0,30.32,NW,320,1.0,2.0,92,0.00,,,0.00,0,weatherlink.com 1.10,2013-03-11 05:10:00,
2013-03-10 22:25:00,45.0,43.0,30.32,NW,320,1.0,3.0,92,0.00,,,0.00,0,weatherlink.com 1.10,2013-03-11 05:25:00,
2013-03-10 22:40:00,44.8,43.0,30.32,NW,320,0.0,2.0,92,0.00,,,0.00,0,weatherlink.com 1.10,2013-03-11 05:40:00,
2013-03-10 22:55:00,44.5,42.0,30.32,NW,320,0.0,3.0,92,0.00,,,0.00,0,weatherlink.com 1.10,2013-03-11 05:55:00,
2013-03-10 23:10:00,44.4,43.0,30.32,NW,320,0.0,1.0,93,0.00,,,0.00,0,weatherlink.com 1.10,2013-03-11 06:10:00,
2013-03-10 23:25:00,44.0,42.0,30.32,NW,320,1.0,3.0,93,0.00,,,0.00,0,weatherlink.com 1.10,2013-03-11 06:25:00,
2013-03-10 23:40:00,44.1,42.0,30.32,NW,320,0.0,4.0,93,0.00,,,0.00,0,weatherlink.com 1.10,2013-03-11 06:40:00,
2013-03-10 23:55:00,43.9,42.0,30.32,NW,320,1.0,3.0,93,0.00,,,0.00,0,weatherlink.com 1.10,2013-03-11 06:55:00,